This demonstration page uses our WeatherBlox Daily Observations layout. Learn more.

Left ArrowRight Arrow

39.12711, -84.51439

Hourly Observations for July 29, 2017

Temp ( °F °C ) Dew Point ( °F °C ) Humidity (%) Winds ( mph kmh ) Pressure ( in mb ) Visibility ( mi km ) Precip ( " mm )
12:53 am 00:53 Clear 69 20.6 61 16.1 76 76 NNE 8 13 29.89 1012 10 16 N/A
1:53 am 01:53 Clear 68 20 62 16.7 81 81 N 9 15 29.90 1012 10 16 N/A
2:53 am 02:53 Clear 67 19.4 62 16.7 84 84 N 8 13 29.90 1012 10 16 N/A
3:53 am 03:53 Clear 65 18.3 60 15.6 84 84 N 9 15 29.90 1013 10 16 N/A
4:53 am 04:53 Clear 65 18.3 59 15 81 81 N 10 17 29.91 1013 10 16 N/A
5:53 am 05:53 Clear 63 17.2 58 14.4 84 84 N 7 11 29.92 1013 10 16 N/A
6:53 am 06:53 Sunny 62 16.7 57 13.9 84 84 N 8 13 29.93 1014 10 16 N/A
7:53 am 07:53 Sunny 64 17.8 57 13.9 78 78 NNE 10 17 29.95 1014 10 16 N/A
8:53 am 08:53 Sunny 67 19.4 55 12.8 66 66 NE 13 20 29.97 1015 10 16 N/A
9:53 am 09:53 Sunny 69 20.6 55 12.8 61 61 NNE 10 17 29.98 1015 10 16 N/A
10:53 am 10:53 Sunny 71 21.7 55 12.8 57 57 NE 14 22 29.99 1016 10 16 N/A
11:53 am 11:53 Sunny 75 23.9 55 12.8 50 50 NE 10 17 30.00 1016 10 16 N/A
12:53 pm 12:53 Sunny 76 24.4 54 12.2 47 47 NE 10 17 30.00 1016 10 16 N/A
1:53 pm 13:53 Sunny 77 25 55 12.8 47 47 NE 15 24 30.00 1016 10 16 N/A
2:53 pm 14:53 Sunny 78 25.6 54 12.2 43 43 NNE 8 13 30.00 1016 10 16 N/A
3:53 pm 15:53 Sunny 79 26.1 54 12.2 42 42 ENE 9 15 30.00 1016 10 16 N/A
4:53 pm 16:53 Sunny 80 26.7 58 14.4 47 47 NNE 10 17 30.00 1016 10 16 N/A
5:53 pm 17:53 Mostly Sunny 80 26.7 58 14.4 47 47 NE 8 13 30.00 1016 10 16 N/A
6:53 pm 18:53 Sunny 78 25.6 59 15 52 52 NE 10 17 29.99 1016 10 16 N/A
7:53 pm 19:53 Mostly Sunny 76 24.4 58 14.4 54 54 NE 8 13 30.01 1016 10 16 N/A
8:53 pm 20:53 Clear 71 21.7 59 15 66 66 NE 3 6 30.02 1017 10 16 N/A
9:53 pm 21:53 Clear 69 20.6 58 14.4 68 68 NE 9 15 30.04 1017 10 16 N/A
10:53 pm 22:53 Clear 66 18.9 59 15 78 78 E 3 6 30.05 1018 10 16 N/A
11:53 pm 23:53 Clear 64 17.8 59 15 84 84 NNE 3 6 30.06 1018 10 16 N/A

Powered by AerisWeather